Weather History for Woensdrecht, Netherlands

Change the Weather History Date:

Sunday, December 22, 2013

  Actual Average Record
Temperature  
Mean Temperature 48 °F -  
Max Temperature 52 °F 41 °F 53 °F (2012)
Min Temperature 43 °F 33 °F 14 °F (2007)
Degree Days  
Heating Degree Days 18    
Moisture  
Dew Point 43 °F    
Average Humidity 82    
Maximum Humidity 93    
Minimum Humidity 68    
Precipitation  
Precipitation 0.00 in - - ()
Sea Level Pressure  
Sea Level Pressure 29.89 in    
Wind  
Wind Speed 14 mph ()    
Max Wind Speed 23 mph    
Max Gust Speed 34 mph    
Visibility 7.7 miles    
Events Rain    
Averages and records for this station are not official NWS values.
T = Trace of Precipitation, MM = Missing Value Source: Averaged Metar Reports

Daily Weather History Graph

Daily Weather History Graph

Search for Another Location

Airport:

Trip Planner

Search our weather history database for the weather conditions in past years. The results will help you decide how hot, cold, wet, or windy it might be!

Date:

Astronomy

Dec. 22, 2013 Rise Set
Actual Time 8:46 AM CET 4:36 PM CET
Civil Twilight 8:05 AM CET 5:16 PM CET
Nautical Twilight 7:22 AM CET 5:59 PM CET
Astronomical Twilight 6:41 AM CET 6:40 PM CET
Moon 10:07 PM CET (12/22) 11:04 AM CET (12/22)
Length of Visible Light 9h 10m
Length of Day
7h 50m
Waning Gibbous, 79% of the Moon is Illuminated
Dec 22
Waning Gibbous
Dec 25
Last Quarter
Jan 1
New
Jan 8
First Quarter
Jan 16
Full

Hourly Weather History & Observations

Time (CET) Temp. Windchill Dew Point Humidity Pressure Visibility Wind Dir Wind Speed Gust Speed Precip Events Conditions
12:00 AM 45 °F - 39 °F 72% 29.94 in 22 mi SSW 15.7 mph - -   Partly Cloudy
12:25 AM 44.6 °F 37.8 °F 39.2 °F 81% 29.92 in 6.2 mi SSW 15.0 mph 26.5 mph N/A   Overcast
12:55 AM 44.6 °F 37.8 °F 39.2 °F 81% 29.92 in 6.2 mi SSW 15.0 mph 28.8 mph N/A   Overcast
1:00 AM 45 °F - 39 °F 74% 29.94 in 25 mi SSW 15.7 mph - -   Partly Cloudy
1:16 AM 46.4 °F 39.5 °F 39.2 °F 76% 29.92 in 6.2 mi SSW 17.3 mph 28.8 mph N/A   Mostly Cloudy
1:25 AM 46.4 °F 39.8 °F 39.2 °F 76% 29.92 in 6.2 mi SSW 16.1 mph 28.8 mph N/A   Overcast
1:55 AM 46.4 °F 39.8 °F 41.0 °F 81% 29.92 in 6.2 mi SSW 16.1 mph 34.5 mph N/A   Overcast
1:59 AM 46.4 °F 39.5 °F 39.2 °F 76% 29.92 in 6.2 mi SSW 17.3 mph 34.5 mph N/A   Overcast
2:00 AM 46 °F - 40 °F 73% 29.94 in 25 mi SSW 15.7 mph - -   Overcast
2:03 AM 46.4 °F 39.8 °F 41.0 °F 81% 29.92 in 6.2 mi SSW 16.1 mph - N/A   Overcast
2:07 AM 46.4 °F 39.8 °F 41.0 °F 81% 29.92 in 6.2 mi SSW 16.1 mph - N/A   Overcast
2:25 AM 46.4 °F 39.8 °F 41.0 °F 81% 29.92 in 6.2 mi SSW 16.1 mph 28.8 mph N/A   Mostly Cloudy
2:55 AM 46.4 °F 39.8 °F 41.0 °F 81% 29.92 in 6.2 mi SSW 16.1 mph 29.9 mph N/A   Overcast
2:59 AM 46.4 °F 40.1 °F 41.0 °F 81% 29.92 in 6.2 mi SSW 15.0 mph 26.5 mph N/A   Overcast
3:00 AM 46 °F - 41 °F 77% 29.95 in 22 mi SSW 15.7 mph - -   Overcast
3:04 AM 46.4 °F 40.1 °F 41.0 °F 81% 29.92 in 6.2 mi SSW 15.0 mph 27.6 mph N/A   Overcast
3:25 AM 46.4 °F 40.4 °F 41.0 °F 81% 29.95 in 6.2 mi SSW 13.8 mph - N/A   Overcast
3:55 AM 46.4 °F 40.7 °F 42.8 °F 87% 29.95 in 6.2 mi SSW 12.7 mph 24.2 mph N/A   Mostly Cloudy
4:00 AM 46 °F - 42 °F 82% 29.96 in 19 mi SSW 13.4 mph - -   Overcast
4:01 AM 46.4 °F 40.4 °F 42.8 °F 87% 29.95 in 6.2 mi SSW 13.8 mph - N/A   Mostly Cloudy
4:07 AM 46.4 °F 40.4 °F 42.8 °F 87% 29.95 in 6.2 mi SSW 13.8 mph - N/A   Mostly Cloudy
4:17 AM 46.4 °F 40.7 °F 42.8 °F 87% 29.95 in 6.2 mi SSW 12.7 mph - N/A   Overcast
4:21 AM 46.4 °F 40.7 °F 42.8 °F 87% 29.95 in 6.2 mi SSW 12.7 mph - N/A   Mostly Cloudy
4:25 AM 46.4 °F 40.7 °F 42.8 °F 87% 29.95 in 6.2 mi SSW 12.7 mph - N/A   Overcast
4:40 AM 46.4 °F 41.1 °F 42.8 °F 87% 29.95 in 6.2 mi SSW 11.5 mph - N/A   Mostly Cloudy
4:44 AM 46.4 °F 41.5 °F 42.8 °F 87% 29.95 in 6.2 mi SSW 10.4 mph - N/A   Mostly Cloudy
4:48 AM 46.4 °F 41.1 °F 42.8 °F 87% 29.95 in 6.2 mi SSW 11.5 mph - N/A   Mostly Cloudy
4:55 AM 46.4 °F 40.7 °F 42.8 °F 87% 29.95 in 6.2 mi SSW 12.7 mph - N/A   Overcast
5:00 AM 46 °F - 43 °F 84% 29.96 in 16 mi SSW 11.2 mph - - Rain Drizzle
5:25 AM 46.4 °F 40.4 °F 42.8 °F 87% 29.95 in 6.2 mi SSW 13.8 mph - N/A   Overcast
5:55 AM 46.4 °F 40.4 °F 42.8 °F 87% 29.95 in 6.2 mi SSW 13.8 mph - N/A   Overcast
6:00 AM 47 °F - 43 °F 80% 29.95 in 18 mi SSW 13.4 mph - -   Overcast
6:25 AM 46.4 °F 41.1 °F 42.8 °F 87% 29.95 in 6.2 mi SSW 11.5 mph - N/A   Overcast
6:55 AM 46.4 °F 41.1 °F 42.8 °F 87% 29.95 in 6.2 mi SSW 11.5 mph - N/A   Overcast
7:00 AM 46 °F - 43 °F 84% 29.95 in 14 mi SSW 11.2 mph - -   Partly Cloudy
7:25 AM 46.4 °F 40.7 °F 42.8 °F 87% 29.95 in 6.2 mi SSW 12.7 mph 24.2 mph N/A   Overcast
7:55 AM 46.4 °F 40.4 °F 42.8 °F 87% 29.92 in 6.2 mi SSW 13.8 mph - N/A   Overcast
8:00 AM 47 °F - 43 °F 81% 29.94 in 15 mi SSW 13.4 mph - -   Overcast
8:25 AM 46.4 °F 40.7 °F 42.8 °F 87% 29.92 in 6.2 mi SSW 12.7 mph 25.3 mph N/A   Overcast
8:55 AM 48.2 °F - 42.8 °F 82% 29.92 in 6.2 mi SSW 11.5 mph - N/A   Overcast
9:00 AM 47 °F - 44 °F 84% 29.92 in 18 mi SSW 11.2 mph - -   Overcast
9:25 AM 48.2 °F - 44.6 °F 87% 29.92 in 6.2 mi SSW 13.8 mph 31.1 mph N/A   Overcast
9:55 AM 48.2 °F - 44.6 °F 87% 29.89 in 6.2 mi SSW 11.5 mph 24.2 mph N/A   Overcast
10:00 AM 48 °F - 44 °F 82% 29.92 in 19 mi SSW 13.4 mph - -   Overcast
10:25 AM 48.2 °F - 44.6 °F 87% 29.89 in 6.2 mi SSW 13.8 mph - N/A   Overcast
10:55 AM 50.0 °F - 44.6 °F 82% 29.89 in 6.2 mi SSW 15.0 mph 28.8 mph N/A   Overcast
10:59 AM 50.0 °F - 44.6 °F 82% 29.89 in 6.2 mi SSW 13.8 mph 28.8 mph N/A   Overcast
11:00 AM 49 °F - 45 °F 79% 29.91 in 14 mi SSW 13.4 mph - -   Overcast
11:20 AM 50.0 °F - 44.6 °F 82% 29.89 in 6.2 mi SSW 12.7 mph - N/A   Overcast
11:25 AM 50.0 °F - 44.6 °F 82% 29.89 in 6.2 mi SSW 13.8 mph 26.5 mph N/A   Mostly Cloudy
11:36 AM 50.0 °F - 44.6 °F 82% 29.89 in 6.2 mi SSW 15.0 mph 27.6 mph N/A   Mostly Cloudy
11:55 AM 50.0 °F - 44.6 °F 82% 29.89 in 6.2 mi SSW 15.0 mph 31.1 mph N/A   Mostly Cloudy
12:00 PM 50 °F - 44 °F 73% 29.88 in 22 mi SSW 15.7 mph - -   Scattered Clouds
12:05 PM 50.0 °F - 44.6 °F 82% 29.86 in 6.2 mi SSW 16.1 mph 27.6 mph N/A   Mostly Cloudy
12:09 PM 50.0 °F - 44.6 °F 82% 29.86 in 6.2 mi SSW 16.1 mph 28.8 mph N/A   Mostly Cloudy
12:13 PM 50.0 °F - 44.6 °F 82% 29.86 in 6.2 mi SSW 16.1 mph 28.8 mph N/A   Overcast
12:25 PM 50.0 °F - 44.6 °F 82% 29.86 in 6.2 mi SSW 16.1 mph 27.6 mph N/A   Mostly Cloudy
12:55 PM 51.8 °F - 44.6 °F 76% 29.83 in 6.2 mi SSW 16.1 mph 29.9 mph N/A   Mostly Cloudy
1:00 PM 51 °F - 45 °F 72% 29.85 in 22 mi SSW 13.4 mph - -   Unknown
1:25 PM 51.8 °F - 44.6 °F 76% 29.83 in 6.2 mi SSW 16.1 mph 28.8 mph N/A   Mostly Cloudy
1:29 PM 51.8 °F - 44.6 °F 76% 29.83 in 6.2 mi SSW 16.1 mph 27.6 mph N/A   Overcast
1:42 PM 51.8 °F - 44.6 °F 76% 29.83 in 6.2 mi SSW 17.3 mph 28.8 mph N/A   Overcast
1:47 PM 51.8 °F - 44.6 °F 76% 29.83 in 6.2 mi SSW 16.1 mph 27.6 mph N/A   Mostly Cloudy
1:55 PM 51.8 °F - 44.6 °F 76% 29.83 in 6.2 mi SSW 17.3 mph - N/A   Mostly Cloudy
2:00 PM 52 °F - 44 °F 68% 29.83 in 17 mi SW 20.1 mph - - Rain Heavy Rain
2:00 PM 51.8 °F - 44.6 °F 76% 29.83 in 6.2 mi SW 19.6 mph 32.2 mph N/A Rain Drizzle
2:09 PM 51.8 °F - 44.6 °F 76% 29.83 in 6.2 mi SW 18.4 mph - N/A Rain Light Rain
2:15 PM 50.0 °F - 44.6 °F 82% 29.83 in 6.2 mi SW 17.3 mph 31.1 mph N/A Rain Light Rain
2:19 PM 48.2 °F - 42.8 °F 82% 29.83 in 5.6 mi SW 20.7 mph 34.5 mph N/A Rain Heavy Rain Showers
2:25 PM 46.4 °F 38.3 °F 42.8 °F 87% 29.83 in 6.2 mi WSW 23.0 mph 34.5 mph N/A Rain Light Rain Showers
2:29 PM 46.4 °F 38.7 °F 42.8 °F 87% 29.83 in 6.2 mi WSW 20.7 mph - N/A Rain Light Rain Showers
2:33 PM 46.4 °F 39.2 °F 42.8 °F 87% 29.83 in 6.2 mi WSW 18.4 mph - N/A Rain Light Rain
2:37 PM 46.4 °F 39.8 °F 42.8 °F 87% 29.83 in 6.2 mi WSW 16.1 mph 27.6 mph N/A   Mostly Cloudy
2:50 PM 48.2 °F - 42.8 °F 82% 29.83 in 6.2 mi WSW 12.7 mph 24.2 mph N/A   Mostly Cloudy
2:55 PM 48.2 °F - 42.8 °F 82% 29.83 in 6.2 mi WSW 15.0 mph - N/A   Mostly Cloudy
3:00 PM 48 °F - 43 °F 78% 29.85 in 25 mi WSW 15.7 mph - - Rain Rain
3:25 PM 46.4 °F 40.7 °F 44.6 °F 93% 29.83 in 6.2 mi SW 12.7 mph - N/A   Overcast
3:55 PM 46.4 °F 41.5 °F 44.6 °F 93% 29.83 in 6.2 mi SW 10.4 mph - N/A   Mostly Cloudy
4:00 PM 48 °F - 44 °F 83% 29.86 in 14 mi SW 11.2 mph - -   Partly Cloudy
4:07 PM 48.2 °F - 44.6 °F 87% 29.83 in 6.2 mi WSW 12.7 mph - N/A   Overcast
4:11 PM 48.2 °F - 44.6 °F 87% 29.86 in 6.2 mi WSW 11.5 mph - N/A   Overcast
4:25 PM 48.2 °F - 44.6 °F 87% 29.86 in 6.2 mi WSW 9.2 mph - N/A   Mostly Cloudy
4:55 PM 50.0 °F - 44.6 °F 82% 29.86 in 6.2 mi SW 15.0 mph - N/A   Mostly Cloudy
5:00 PM 49 °F - 44 °F 76% 29.87 in 17 mi SW 15.7 mph - - Rain Light Rain Showers
5:03 PM 48.2 °F - 44.6 °F 87% 29.86 in 6.2 mi SW 13.8 mph - N/A Rain Drizzle
5:17 PM 48.2 °F - 42.8 °F 82% 29.86 in 6.2 mi SW 12.7 mph - N/A Rain Light Rain
5:25 PM 46.4 °F 39.5 °F 41.0 °F 81% 29.86 in 6.2 mi WSW 17.3 mph - N/A Rain Light Rain
5:29 PM 46.4 °F 39.2 °F 41.0 °F 81% 29.86 in 6.2 mi West 18.4 mph - N/A Rain Light Rain
5:49 PM 46.4 °F 41.5 °F 42.8 °F 87% 29.86 in 6.2 mi SW 10.4 mph - N/A Rain Light Rain
5:55 PM 46.4 °F 41.9 °F 42.8 °F 87% 29.86 in 6.2 mi SW 9.2 mph - N/A Rain Light Rain
6:00 PM 47 °F - 43 °F 80% 29.87 in 17 mi SW 11.2 mph - - Rain Light Rain
6:25 PM 48.2 °F - 41.0 °F 76% 29.86 in 6.2 mi SW 13.8 mph - N/A   Mostly Cloudy
6:55 PM 46.4 °F 40.7 °F 41.0 °F 81% 29.86 in 6.2 mi SW 12.7 mph - N/A   Overcast
7:00 PM 47 °F - 42 °F 76% 29.88 in 25 mi SW 13.4 mph - - Rain Rain
7:25 PM 46.4 °F 40.7 °F 41.0 °F 81% 29.86 in 6.2 mi SW 12.7 mph - N/A   Mostly Cloudy
7:55 PM 48.2 °F - 41.0 °F 76% 29.86 in 6.2 mi SW 15.0 mph - N/A   Overcast
8:00 PM 47 °F - 41 °F 71% 29.88 in 28 mi SW 15.7 mph - -   Scattered Clouds
8:25 PM 46.4 °F 40.4 °F 41.0 °F 81% 29.89 in 6.2 mi SW 13.8 mph - N/A   Mostly Cloudy
8:55 PM 46.4 °F 39.8 °F 41.0 °F 81% 29.89 in 6.2 mi SW 16.1 mph - N/A   Overcast
9:00 PM 47 °F - 41 °F 73% 29.91 in 19 mi SW 17.9 mph - -   Overcast
9:25 PM 46.4 °F 40.1 °F 41.0 °F 81% 29.89 in 6.2 mi SW 15.0 mph - N/A   Mostly Cloudy
9:55 PM 46.4 °F 40.7 °F 41.0 °F 81% 29.89 in 6.2 mi SW 12.7 mph - N/A   Scattered Clouds
10:00 PM 45 °F - 40 °F 78% 29.92 in 22 mi SW 13.4 mph - -   Scattered Clouds
10:25 PM 44.6 °F 38.1 °F 41.0 °F 87% 29.92 in 6.2 mi SW 13.8 mph - N/A Rain Light Rain
10:35 PM 44.6 °F 38.4 °F 41.0 °F 87% 29.92 in 6.2 mi WSW 12.7 mph - N/A   Mostly Cloudy
10:39 PM 44.6 °F 38.4 °F 41.0 °F 87% 29.92 in 6.2 mi WSW 12.7 mph - N/A   Mostly Cloudy
10:55 PM 44.6 °F 38.8 °F 41.0 °F 87% 29.92 in 6.2 mi SW 11.5 mph - N/A   Partly Cloudy
11:00 PM 45 °F - 40 °F 78% 29.94 in 18 mi SW 11.2 mph - - Rain Rain
11:25 PM 44.6 °F 38.1 °F 41.0 °F 87% 29.92 in 6.2 mi SW 13.8 mph - N/A   Mostly Cloudy
11:55 PM 44.6 °F 38.8 °F 41.0 °F 87% 29.92 in 6.2 mi SW 11.5 mph - N/A   Mostly Cloudy